Location: Richmond
(37.5540°N, 77.4610°W)
Time: 18:58:49
(UTC-04:00)

ISS - Visible Passes

Search period start: 26 May 2024 00:00
Search period end: 05 June 2024 00:00
Orbit: 411 x 419 km, 51.6° (Epoch: 26 May)

Date Brightness Start Highest point End Pass type
(mag) Time Alt. Az. Time Alt. Az. Time Alt. Az.
26 May -3.3 21:53:58 10° NW 21:57:15 52° NE 21:58:22 34° E visible
27 May -2.4 21:05:14 10° NNW 21:08:17 31° NNE 21:11:18 10° E visible
27 May -1.9 22:42:04 10° WNW 22:44:12 24° WSW 22:44:12 24° WSW visible
28 May -3.3 21:52:48 10° WNW 21:56:04 49° SW 21:57:11 33° S visible
29 May -3.8 21:03:45 10° NW 21:07:07 85° NE 21:10:11 12° SE visible
30 May -1.4 21:52:20 10° W 21:54:29 16° SW 21:56:05 12° SSW visible
31 May -2.3 21:02:35 10° WNW 21:05:34 29° SW 21:08:31 10° SSE visible
